Nenana, AK

7:59 PM AKDT on August 27, 2016 (GMT -0800)
Nenana Municipal

Weather History for PANN - August, 2013

Change the Weather History Date:

Tuesday, August 27, 2013

  Actual Average Record
Temperature  
Mean Temperature 54 °F -  
Max Temperature 64 °F 63 °F 75 °F (1989)
Min Temperature 46 °F 37 °F 34 °F (2006)
Degree Days  
Heating Degree Days 10    
Growing Degree Days 4 (Base 50)    
Moisture  
Dew Point 40 °F    
Average Humidity 71    
Maximum Humidity 95    
Minimum Humidity 41    
Precipitation  
Precipitation 0.08 in - - ()
Sea Level Pressure  
Sea Level Pressure 29.77 in    
Wind  
Wind Speed 1 mph (WNW)    
Max Wind Speed 16 mph    
Max Gust Speed -    
Visibility 10 miles    
Events Rain    
Averages and records for this station are not official NWS values.
T = Trace of Precipitation, MM = Missing Value Source: NWS Daily Summary

Daily Weather History Graph

Daily Weather History Graph

Search for Another Location

Airport or City:

Trip Planner

Search our weather history database for the weather conditions in past years. The results will help you decide how hot, cold, wet, or windy it might be!

Date:

Astronomy

Aug. 27, 2013 Rise Set
Actual Time 6:23 AM AKDT 9:29 PM AKDT
Civil Twilight 5:26 AM AKDT 10:25 PM AKDT
Nautical Twilight 4:01 AM AKDT 11:48 PM AKDT
Astronomical Twilight 2:30 AM AKDT 1:25 AM AKDT
Moon 10:36 PM AKDT (8/27) 4:23 PM AKDT (8/27)
Length of Visible Light 16h 59m
Length of Day
15h 06m
Waning Gibbous, 55% of the Moon is Illuminated
Aug 27
Waning Gibbous
Aug 28
Last Quarter
Sep 5
New
Sep 12
First Quarter
Sep 19
Full

Hourly Weather History & Observations

Time (AKDT) Temp. Dew Point Humidity Pressure Visibility Wind Dir Wind Speed Gust Speed Precip Events Conditions
12:53 AM 45.0 °F 35.1 °F 68% 29.79 in 10.0 mi Calm Calm - N/A   Clear
1:53 AM 42.1 °F 36.0 °F 79% 29.80 in 10.0 mi Calm Calm - N/A   Clear
2:53 AM 41.0 °F 35.1 °F 79% 29.81 in 10.0 mi Calm Calm - N/A   Clear
3:53 AM 39.0 °F 35.1 °F 86% 29.81 in - Calm Calm - N/A   Clear
4:53 AM 36.0 °F 34.0 °F 93% 29.82 in 10.0 mi Calm Calm - N/A   Clear
5:53 AM 34.0 °F 32.0 °F 92% 29.81 in 10.0 mi Calm Calm - N/A   Clear
6:53 AM 33.1 °F 30.9 °F 92% 29.82 in 10.0 mi Calm Calm - N/A   Clear
7:53 AM 34.0 °F 32.0 °F 92% 29.83 in 10.0 mi Calm Calm - N/A   Clear
8:53 AM 41.0 °F 35.1 °F 79% 29.82 in 10.0 mi Calm Calm - N/A   Clear
9:53 AM 46.0 °F 37.9 °F 73% 29.81 in - Calm Calm - N/A   Partly Cloudy
10:53 AM 50.0 °F 36.0 °F 59% 29.80 in 10.0 mi Calm Calm - N/A   Clear
11:53 AM 51.1 °F 36.0 °F 56% 29.79 in 10.0 mi Calm Calm - N/A   Clear
12:53 PM 54.0 °F 37.9 °F 55% 29.78 in 10.0 mi NNW 3.5 mph - N/A   Clear
1:53 PM 57.0 °F 37.9 °F 49% 29.76 in 10.0 mi Variable 3.5 mph - N/A   Clear
2:53 PM 59.0 °F 37.9 °F 46% 29.75 in 10.0 mi NW 3.5 mph - N/A   Clear
3:53 PM 61.0 °F 37.9 °F 42% 29.73 in 10.0 mi NNW 3.5 mph - N/A   Clear
4:53 PM 62.1 °F 37.9 °F 41% 29.71 in 10.0 mi Calm Calm - N/A   Clear
5:53 PM 61.0 °F 41.0 °F 48% 29.70 in 10.0 mi Calm Calm - N/A   Overcast
6:53 PM 63.0 °F 41.0 °F 45% 29.68 in 10.0 mi Calm Calm - N/A   Overcast
7:53 PM 55.9 °F 46.9 °F 72% 29.68 in 10.0 mi Calm Calm - N/A   Mostly Cloudy
8:53 PM 55.0 °F 48.9 °F 80% 29.66 in 10.0 mi Calm Calm - N/A   Overcast
9:53 PM 52.0 °F 48.0 °F 86% 29.67 in 10.0 mi Calm Calm - N/A   Overcast
10:53 PM 53.1 °F 44.1 °F 71% 29.67 in 10.0 mi SW 3.5 mph - N/A   Mostly Cloudy
11:53 PM 53.1 °F 43.0 °F 69% 29.69 in 10.0 mi WNW 4.6 mph - N/A   Overcast